Location: ??????????
(48.5701°N, 37.7703°E)
Time: 21:42:17
(UTC+00:00)

CZ-4B R/B - Pass Details

Date: 14 July 2020
Orbit: 390 x 465 km, 97.6° (Epoch: 10 August)

Event Time Altitude Azimuth Distance (km) Brightness Sun altitude
Rises 00:37:35 0° 130° (SE) 2,492 5.2 -8.8°
Reaches altitude 10° 00:40:01 10° 112° (ESE) 1,623 4.5 -8.5°
Maximum altitude 00:42:34 19° 65° (ENE) 1,161 4.5 -8.3°
Drops below altitude 10° 00:45:08 10° 18° (NNE) 1,629 5.4 -8.0°
Sets 00:47:34 0° 0° (N) 2,504 6.0 -7.7°
